View from above orbital plane
|
View from above satellite
|
Ground track
|
The orbit data is extracted from the following two-line orbital elements,
1 41557U 16033B 21023.58529834 .00001544 00000-0 57750-4 0 9999
2 41557 97.3972 118.4156 0013977 35.3228 78.2819 15.28793724259398
Epoch (UTC): | 23 January 2021 14:02:49 |
Eccentricity: | 0.0013977 |
inclination: | 97.3972° |
perigee height: | 470 km |
apogee height: | 489 km |
right ascension of ascending node: | 118.4156° |
argument of perigee: | 35.3228° |
revolutions per day: | 15.28793724 |
mean anomaly at epoch: | 78.2819° |
orbit number at epoch: | 25939 |
The dashed part of the orbit path shows where the satellite is in the earth's shadow,
|
|